{"data":{"norad_id":48478,"intl_designator":"2021-040BC","name":"STARLINK-2728","alt_names":[],"object_type":"PAYLOAD","status":"ACTIVE","operator":null,"country":"US","launch_date":"2021-05-09","launch_site_code":"AFETR","launch_vehicle":null,"mission":null,"orbit_class":"UNKNOWN","rcs_meters":null,"size_class":null,"mass_kg":null,"dimensions":null,"purposes":["comms"],"wikipedia_slug":null,"has_3d_model":false,"image_url":null,"decayed_at":null,"tle_current":{"epoch":"2026-09-19T18:38:09.434976Z","epoch_age_seconds":80812,"freshness":"FRESH","line1":"1 48478U 21040BC  26262.77649809  .00002051  00000+0  77782-4 0  9998","line2":"2 48478  53.1612   7.8930 0001049  83.8889 276.2232 15.31718978296232","mean_motion":15.31718978,"eccentricity":0.0001049,"inclination_deg":53.1612,"raan_deg":7.893,"arg_perigee_deg":83.8889,"mean_anomaly_deg":276.2232,"bstar":7.7782e-5,"rev_number":29623,"period_min":94.012023137576,"perigee_km":469.96498211688,"apogee_km":471.40186464171,"semimajor_km":6848.8204233793,"source":"CELESTRAK","updated_at":"2026-09-20T09:00:39.130446Z"}}}